Tracking 26217 objects as of 28-Sep-2022
HD Live streaming from Space Station
objects crossing your sky now

FLOCK 4X 1

Track FLOCK 4X 1 now!
10-day predictions


NORAD ID: 51017
Int'l Code: 2022-002AK
Perigee: 513.7 km
Apogee: 532.7 km
Inclination: 97.5 °
Period: 94.9 minutes
Semi major axis: 6894 km
RCS: Unknown
Launch date: January 13, 2022
Source: United States (US)
Launch site: AIR FORCE EASTERN TEST RANGE (AFETR)
aabbcc
Your satellite tracking list
Your tracking list is empty




NASA's NSSDC Master Catalog

Two Line Element Set (TLE):
1 51017U 22002AK  22270.14249606  .00016693  00000-0  85414-3 0  9995
2 51017  97.4754 335.8496 0013804  75.8725 284.4041 15.16619678 38835
Source of the keplerian elements: AFSPC